GFSSGP_700_rhum_141.txt.gz
RH
7 6 6 5 4 4 4 6 20 20 16 22 24 27 24 19 19 19 24 22 21 30 28 21 15 12 11 11 8 8 7 6 5 7 14 22 28 28 18 29 46 51 47 43 48 52 56 56 62
14 11 8 6 5 5 5 7 16 16 12 18 22 24 26 26 22 22 23 22 24 28 22 14 10 9 8 8 8 8 9 7 6 6 10 16 21 19 16 30 42 50 53 50 52 52 53 55 58
20 18 13 8 6 5 5 10 17 14 10 12 22 20 23 26 25 30 25 16 15 21 18 16 16 12 11 10 9 8 9 9 7 7 8 11 12 12 16 26 35 44 46 47 49 53 56 52 57
23 23 21 13 8 5 6 6 11 11 8 9 17 21 19 20 34 35 23 17 17 15 16 17 14 18 18 17 13 10 10 11 9 8 9 11 12 14 20 26 33 36 36 32 36 38 36 29 59
24 26 25 18 13 11 10 11 10 8 11 12 13 19 20 19 20 20 22 22 19 18 16 18 19 19 20 18 15 13 12 11 12 11 10 11 12 15 21 28 32 32 20 21 23 22 27 27 32
27 28 27 22 15 16 15 19 20 17 16 17 15 19 21 20 20 21 27 25 24 24 22 21 21 21 22 19 17 16 14 13 12 13 13 13 13 15 20 27 32 21 22 22 27 36 38 41 38
28 30 30 24 18 18 19 20 21 20 18 20 20 18 19 22 21 25 34 29 29 24 23 23 23 23 25 21 18 17 17 16 14 13 14 15 15 17 20 25 29 27 25 35 41 26 33 51 52
31 31 29 26 24 21 20 22 23 22 22 22 21 23 19 21 23 21 28 30 32 27 26 24 25 26 28 26 20 18 17 18 17 17 15 16 18 18 19 24 27 28 30 44 35 32 36 60 63
33 31 30 28 27 23 24 25 24 26 24 23 22 23 23 22 21 22 23 31 34 30 26 27 27 27 30 29 24 19 19 19 19 19 19 17 18 20 20 23 26 28 34 39 41 36 35 59 64
32 32 30 28 28 27 25 25 25 26 26 24 24 24 24 22 23 22 22 30 33 31 28 28 29 29 29 30 28 24 21 20 19 20 21 21 20 22 24 28 34 36 38 44 46 44 37 42 68
32 31 30 30 30 30 28 24 27 26 27 26 25 24 24 25 24 22 22 30 31 33 30 32 33 32 31 30 34 31 27 23 21 21 21 22 22 22 24 30 36 40 43 47 48 47 45 39 57
27 27 28 28 29 28 28 28 24 27 28 29 29 29 27 24 28 25 25 25 39 35 35 34 35 35 36 36 37 34 26 22 22 22 23 24 24 24 26 29 36 40 44 47 49 48 48 46 40
28 28 28 28 28 28 28 27 28 25 24 27 28 29 31 29 28 31 38 40 44 52 40 39 37 41 41 42 41 41 36 27 24 24 24 25 27 28 29 32 36 40 44 48 51 52 51 52 49
26 28 27 26 26 26 26 26 28 22 25 27 27 29 30 30 30 30 32 42 47 56 56 43 38 41 45 50 53 53 50 37 29 27 26 26 27 28 31 32 35 41 45 50 54 57 56 56 57
17 18 18 18 19 21 21 23 23 26 24 22 29 30 31 32 30 30 30 31 36 40 56 64 62 49 49 54 52 58 48 51 52 41 32 29 30 31 31 33 36 37 45 49 55 56 58 60 63
13 11 12 14 15 17 23 26 22 20 18 19 20 21 26 31 33 31 31 31 30 29 30 36 60 62 64 66 57 64 57 48 41 40 36 34 32 34 35 36 35 37 43 48 51 54 56 60 67
15 19 21 19 18 21 22 30 21 26 22 20 19 19 22 25 31 32 32 33 32 31 30 30 30 30 33 49 56 46 42 55 46 45 42 44 43 43 45 43 39 40 43 44 49 52 54 56 68
29 30 28 26 21 21 19 19 20 17 14 14 16 16 19 20 24 28 30 28 31 31 32 31 31 30 30 30 30 29 29 40 55 54 45 44 49 50 48 51 46 42 44 44 44 50 52 55 64
32 31 29 27 23 21 11 17 13 10 9 7 8 11 14 15 20 25 27 27 26 25 25 26 30 30 30 30 30 29 28 27 34 54 52 55 61 62 62 55 49 47 47 43 44 51 55 56 62
21 18 20 22 21 18 10 7 5 8 11 10 7 9 9 9 11 16 24 26 26 25 25 25 27 28 29 29 29 29 29 28 27 48 58 61 82 83 77 66 59 48 46 44 40 45 46 52 58
13 14 17 22 20 13 17 9 18 14 18 28 25 17 12 10 10 11 13 18 21 24 24 25 26 28 29 29 28 29 30 31 37 43 55 62 79 93 92 78 71 54 55 50 42 43 42 45 51
14 18 23 22 19 22 23 14 13 22 26 33 38 39 34 34 27 18 9 6 11 15 18 23 23 24 24 24 28 27 29 31 40 41 60 56 63 71 76 77 96 84 76 58 47 43 35 44 51
21 20 20 19 18 18 25 32 17 19 42 32 28 22 17 13 11 13 13 9 7 6 6 10 12 18 20 22 28 28 30 31 46 47 56 71 79 57 71 82 100 99 90 70 55 50 50 42 48
26 23 16 14 16 29 54 42 32 39 36 34 55 59 55 53 40 34 16 16 16 16 14 5 10 20 22 36 36 35 38 39 64 64 62 98 72 76 62 43 51 47 63 64 56 50 51 45 35
18 10 16 22 36 24 46 32 29 24 24 52 59 52 53 49 45 44 51 20 21 27 30 28 24 28 42 45 56 53 43 62 68 88 78 88 95 69 52 36 30 32 47 48 56 59 47 45 42
30 26 30 35 35 28 38 27 22 32 43 57 47 47 56 82 72 76 96 46 34 31 37 43 62 60 70 74 68 78 88 59 62 68 80 77 48 40 29 16 12 20 40 44 51 52 52 50 51
39 46 45 54 52 49 37 39 34 54 47 37 46 71 73 73 93 100 89 100 74 67 51 66 91 87 88 90 88 84 72 65 59 53 57 49 45 39 26 15 9 18 35 47 56 58 55 59 52
39 60 70 66 62 49 35 42 50 58 45 51 55 99 96 100 100 99 96 100 100 100 97 68 94 99 94 92 78 69 66 64 64 64 62 54 45 36 18 13 12 19 28 46 61 67 70 78 72
64 73 76 80 78 58 66 46 79 78 63 79 91 99 93 97 96 97 97 96 98 99 98 95 73 99 100 100 86 75 72 64 60 59 57 49 44 19 12 11 12 12 22 33 50 65 77 83 83
54 64 80 89 85 93 87 58 70 72 67 88 93 95 95 96 96 96 97 96 96 95 98 100 100 100 99 93 90 83 81 78 71 52 29 26 11 8 7 7 8 10 12 16 38 56 71 68 70

GFSSGP_700_rhum_144.txt.gz
RH
9 6 5 5 11 10 7 11 18 19 17 22 23 25 28 25 38 31 26 26 22 22 27 24 14 10 10 8 7 8 8 7 7 7 9 18 28 28 22 22 38 42 40 41 42 48 51 56 65
15 12 8 5 10 6 6 9 20 17 12 17 22 22 26 34 30 23 24 22 22 20 29 16 11 10 9 9 8 8 8 8 7 7 8 12 18 20 16 23 37 42 43 42 42 48 52 52 54
18 18 16 13 10 6 6 14 21 16 12 10 21 20 24 32 26 28 27 18 19 21 19 17 16 15 14 13 11 9 9 9 8 7 8 10 11 12 13 24 36 39 37 36 40 44 44 45 55
22 22 20 16 11 9 7 15 15 12 11 8 10 25 21 22 24 32 30 20 19 22 17 16 18 19 19 17 13 11 10 10 10 9 9 10 11 12 17 27 35 35 26 22 27 29 22 23 33
24 25 24 20 16 17 11 10 8 13 18 12 11 22 28 20 19 33 25 24 20 19 19 19 19 19 20 18 15 13 12 12 12 11 10 10 12 14 19 28 33 30 20 19 21 30 34 36 33
31 29 25 19 17 22 18 19 18 18 19 18 16 14 26 21 20 20 20 29 24 21 20 21 22 22 22 22 18 16 14 14 13 13 13 13 13 14 18 25 33 22 22 24 36 29 29 38 46
31 34 26 24 22 25 28 21 21 22 28 32 19 18 28 23 20 20 21 28 32 26 21 22 22 23 24 24 21 17 17 16 14 14 14 15 15 16 18 24 29 25 24 39 38 30 31 50 56
32 35 29 28 25 25 30 25 24 28 32 27 22 29 23 20 21 21 22 29 31 33 24 24 23 24 26 28 24 19 18 18 17 16 15 15 17 18 19 22 26 27 28 40 31 34 31 45 60
30 33 27 26 29 26 33 29 35 28 26 33 25 24 21 20 19 21 22 32 35 35 29 26 26 25 27 29 27 21 20 19 18 18 17 16 17 19 20 22 25 26 32 34 36 39 36 36 62
30 32 28 30 33 32 30 34 36 36 33 27 26 26 26 22 20 20 21 22 34 33 36 28 27 26 26 27 29 26 22 20 20 19 19 19 18 19 22 24 29 32 36 39 38 40 42 40 48
34 34 33 32 33 31 27 26 30 31 31 32 31 28 28 27 23 21 24 23 23 36 36 34 30 28 26 25 26 31 26 23 21 20 20 21 21 20 20 23 29 34 38 42 40 39 41 44 43
28 26 26 24 23 23 24 24 23 29 32 26 28 27 27 29 29 23 25 26 24 27 35 38 31 31 29 28 25 28 33 25 21 22 22 22 22 23 23 23 26 32 38 43 44 41 40 44 46
26 32 27 26 24 24 24 24 24 22 22 24 25 26 27 27 28 28 25 28 28 27 35 45 34 30 32 30 31 31 35 28 24 24 25 26 26 26 26 26 28 30 34 40 46 45 44 45 48
23 21 21 21 20 19 19 19 19 24 17 20 20 22 24 26 28 29 29 30 34 38 43 52 42 28 30 32 33 35 40 42 36 29 27 27 28 28 29 30 31 31 34 38 44 47 45 44 50
14 16 27 27 17 20 16 18 26 30 25 21 27 28 28 30 32 32 30 30 31 34 38 55 60 46 30 30 28 33 49 55 52 49 44 32 30 30 32 33 33 35 37 40 41 44 45 43 52
12 18 17 26 23 26 21 17 25 24 18 15 14 19 21 22 24 26 33 32 32 31 30 31 45 64 63 55 43 33 39 49 59 63 48 54 45 35 34 34 36 38 40 43 46 45 45 47 46
22 13 19 21 22 23 21 20 20 23 13 13 15 17 23 26 19 24 28 32 32 32 31 31 32 32 36 49 62 62 62 62 65 61 64 53 56 52 43 38 38 40 43 45 48 46 46 50 49
21 23 21 22 20 25 23 20 21 20 19 17 21 27 8 11 13 19 23 26 31 32 33 32 32 32 31 31 32 39 45 58 55 36 55 57 62 52 45 42 41 43 45 47 48 49 48 50 53
24 22 18 16 22 25 19 15 14 16 17 25 26 21 10 10 11 13 18 25 26 28 29 33 32 31 31 30 30 30 31 37 41 37 37 34 50 60 53 50 49 52 54 54 52 52 52 56 55
16 16 15 17 19 16 16 18 17 22 26 35 32 34 26 13 9 10 13 15 22 27 25 25 27 30 31 31 30 30 30 30 31 30 30 30 36 54 69 66 56 58 67 69 64 62 58 58 59
20 22 20 20 18 14 18 7 17 39 46 45 46 34 23 18 13 8 6 7 12 18 23 25 25 25 26 26 27 29 30 29 29 30 29 29 29 49 78 64 52 68 81 63 64 71 73 65 64
16 23 16 21 17 10 14 10 9 32 40 49 43 20 23 20 17 16 16 12 7 6 10 15 20 23 25 25 25 25 27 29 29 29 29 30 29 39 78 78 61 69 71 99 67 60 63 67 65
26 15 16 20 17 16 14 20 17 45 50 45 61 74 80 42 38 23 15 9 4 6 6 5 5 8 15 18 22 24 25 25 26 28 28 29 30 40 86 83 66 70 74 74 93 78 69 71 62
17 19 21 18 24 15 28 27 11 28 32 54 75 92 98 58 51 43 38 31 22 26 9 3 4 3 3 5 10 16 18 20 22 26 28 28 32 48 92 86 97 91 68 43 74 78 90 88 71
26 18 9 10 19 14 35 23 15 23 50 83 95 84 91 79 98 97 78 62 41 43 35 23 22 9 10 8 11 18 26 42 47 50 46 54 68 70 79 73 83 93 74 56 49 60 68 83 80
31 25 15 21 12 15 20 19 15 33 74 90 98 80 93 87 90 100 100 95 92 65 99 94 33 36 36 31 31 27 52 65 66 78 97 94 79 76 72 68 64 85 78 72 52 49 55 64 81
38 29 44 37 37 33 18 23 24 50 82 90 79 59 88 90 86 90 93 98 92 90 100 100 99 100 93 91 60 67 68 85 89 69 90 96 97 80 74 64 65 73 43 40 41 42 48 52 68
38 49 53 54 58 36 21 29 31 71 96 94 55 66 83 79 64 83 88 95 98 90 94 100 100 98 93 100 97 93 96 87 74 88 90 85 80 73 65 42 39 50 36 24 35 51 52 58 60
64 59 60 61 52 37 34 30 93 100 99 57 63 67 74 71 70 70 80 92 94 96 96 96 99 100 94 99 99 100 100 100 96 83 69 58 60 65 56 54 57 36 15 25 33 35 49 58 70
54 63 83 62 60 64 74 44 63 100 100 96 87 63 68 66 69 64 61 72 93 95 96 96 97 99 100 86 98 98 84 80 84 81 70 67 65 69 65 58 32 13 11 14 19 38 32 39 54

GFSSGP_700_rhum_147.txt.gz
RH
9 7 4 4 19 11 7 7 12 14 14 21 23 22 23 26 28 41 43 23 22 21 24 27 13 10 9 8 7 7 7 7 8 12 18 20 20 18 15 14 28 35 37 36 38 40 45 50 54
12 11 8 16 11 7 5 9 12 17 18 20 23 23 25 32 41 39 40 20 18 19 21 17 12 10 10 9 8 8 8 7 8 8 12 16 18 17 13 16 27 32 34 34 38 46 48 48 50
17 16 20 16 11 7 6 9 12 18 17 19 20 22 25 37 26 24 24 17 17 22 18 15 15 14 16 15 12 9 9 8 8 8 10 11 13 13 12 19 27 30 28 26 30 35 30 30 33
20 23 19 17 10 8 7 12 18 15 16 19 19 23 28 21 22 26 25 22 22 26 17 16 18 18 17 15 13 12 10 9 9 9 10 10 12 12 14 20 24 27 19 19 22 21 22 27 29
23 34 24 18 15 12 14 12 14 14 16 20 20 21 26 31 20 26 31 29 25 28 17 18 18 19 20 19 16 14 12 11 10 10 11 11 12 14 16 20 23 20 20 19 23 33 30 30 34
34 29 24 17 13 17 21 22 23 20 22 24 25 26 22 30 19 19 28 28 31 25 18 20 20 21 21 22 19 16 15 14 12 11 12 13 14 15 17 21 24 19 21 26 39 25 28 37 48
29 25 23 19 18 18 21 28 26 24 25 27 31 27 23 28 29 17 20 21 28 30 22 20 21 22 23 24 22 18 17 16 15 13 12 12 14 16 20 24 27 22 22 38 36 32 30 36 55
33 28 25 21 18 19 26 29 29 31 30 32 30 25 31 31 29 18 19 20 23 32 29 21 20 22 23 25 24 20 18 18 17 16 15 14 14 16 17 20 24 24 25 39 33 35 34 32 49
34 30 23 20 19 21 28 31 31 34 34 33 32 33 32 32 19 18 21 22 22 34 36 29 20 21 23 26 27 23 20 20 18 18 17 16 15 16 18 19 21 22 27 31 35 38 39 38 36
38 28 24 23 27 28 30 32 31 31 29 27 28 30 32 33 32 35 25 33 45 28 37 40 27 22 21 24 26 26 22 22 21 20 19 18 17 17 18 20 22 26 29 31 35 35 37 38 39
33 31 27 27 31 32 30 28 25 25 25 25 28 32 33 36 25 28 36 37 38 45 34 39 40 26 20 20 23 25 25 23 22 20 20 19 19 19 20 21 24 27 30 32 33 33 32 35 36
30 29 29 28 28 28 28 27 26 26 25 27 28 31 31 30 28 26 30 38 31 47 25 34 43 37 25 20 21 22 23 31 25 21 20 20 21 21 21 21 24 28 30 31 32 34 33 33 38
33 30 28 30 28 26 26 24 24 23 23 26 22 19 19 23 28 29 30 27 29 33 40 27 37 43 31 24 22 22 24 25 26 21 21 22 22 23 23 24 25 27 32 35 35 37 37 35 34
26 27 24 24 23 23 24 21 21 22 27 25 26 28 28 30 32 34 33 36 40 44 49 73 40 48 45 25 24 22 23 25 27 27 25 25 26 26 27 27 28 28 32 36 39 43 44 44 42
22 22 23 21 22 20 21 15 18 26 25 25 23 24 23 24 28 32 35 37 38 40 46 52 85 53 57 35 24 23 22 23 27 38 34 30 29 29 30 31 32 32 32 34 38 42 46 48 48
25 22 17 19 20 20 20 13 21 24 21 20 18 18 17 22 31 35 41 32 33 33 35 32 33 98 65 60 30 26 25 24 25 31 40 53 51 37 33 34 35 35 34 36 39 42 44 48 50
19 18 15 16 19 19 18 17 14 16 19 17 16 17 27 38 46 51 57 51 25 31 32 32 32 34 57 56 66 42 30 31 28 28 36 47 58 51 54 52 40 39 38 37 40 44 45 46 52
20 18 19 17 15 17 17 14 13 11 12 13 17 32 41 45 46 52 54 41 23 28 31 32 33 32 32 34 45 68 66 53 48 38 38 50 52 51 65 69 70 63 47 39 41 44 47 48 48
19 15 13 12 13 17 13 12 10 15 21 32 37 39 44 50 56 63 55 26 12 18 25 30 31 33 32 30 32 33 34 48 61 63 58 60 61 52 42 60 70 69 74 58 44 46 49 51 52
11 12 12 13 13 14 11 11 10 23 38 39 43 48 51 58 66 64 17 8 8 11 18 25 28 28 30 31 30 31 30 31 31 34 42 52 54 50 49 42 51 56 72 68 60 49 51 53 57
12 12 17 15 14 12 10 10 17 30 37 40 44 54 60 77 72 12 6 5 6 6 5 11 21 26 25 25 28 29 30 30 30 30 30 32 39 39 36 31 37 38 63 79 77 58 56 66 70
13 22 21 16 14 9 10 9 10 23 29 35 42 62 92 47 22 14 8 6 5 3 4 8 6 12 24 26 24 24 26 27 28 30 30 30 29 30 30 30 30 31 40 81 78 68 67 78 68
12 20 17 16 16 15 12 11 12 26 34 33 66 98 51 30 31 34 31 23 15 12 8 4 3 7 7 16 25 25 24 24 23 26 28 30 30 29 29 29 29 32 48 74 88 74 83 79 79
10 11 18 19 17 18 16 16 10 20 32 56 96 64 49 58 56 52 54 57 50 35 28 20 13 10 6 6 6 16 24 25 25 24 24 34 29 29 29 28 28 40 49 79 91 93 93 75 52
25 20 13 13 16 17 23 20 14 23 55 84 94 58 38 54 60 54 52 51 54 49 41 36 30 29 28 23 10 6 6 11 21 23 25 31 34 29 24 31 46 42 67 86 98 99 92 56 63
21 20 15 18 15 14 19 15 16 26 65 90 92 51 47 53 64 58 49 54 55 62 59 53 57 88 66 97 46 32 17 11 10 31 32 38 50 46 30 46 52 66 95 96 90 77 70 71 98
29 24 35 28 22 26 16 12 17 25 79 89 63 44 30 44 49 52 50 52 47 52 66 63 55 58 81 98 98 90 73 98 62 58 49 59 59 61 71 74 84 95 90 97 87 78 68 79 95
24 36 39 44 52 30 16 16 20 60 89 92 72 39 31 41 54 54 48 42 43 46 58 71 76 64 67 99 100 99 99 97 99 100 82 73 84 97 100 96 90 91 88 90 71 67 62 72 69
45 37 36 35 34 31 27 28 70 79 88 57 44 39 43 44 54 50 49 52 51 59 59 72 81 89 86 96 99 90 95 90 99 98 99 99 100 100 99 100 92 80 62 58 62 54 56 47 56
32 46 52 54 40 46 44 37 53 78 95 70 53 48 64 83 74 56 50 57 62 66 65 76 85 95 96 96 98 99 91 98 100 99 100 100 100 92 82 77 67 56 48 53 54 32 29 30 37

GFSSGP_700_rhum_150.txt.gz
RH
11 8 4 4 18 19 10 9 10 13 15 18 21 21 21 30 34 54 53 32 38 20 20 24 13 11 10 8 7 7 7 6 7 8 12 13 13 13 10 13 20 26 30 32 30 32 37 39 42
13 10 8 21 23 11 9 8 10 15 16 12 20 20 22 36 30 48 44 24 22 17 22 20 12 11 11 11 10 8 7 7 7 7 8 10 11 10 10 15 19 23 26 24 26 30 32 34 30
17 14 13 27 16 12 8 9 15 16 15 17 18 20 24 32 30 27 31 24 22 18 23 15 13 13 13 12 12 10 9 8 7 7 8 10 11 11 12 17 21 23 20 17 17 21 18 17 20
20 22 19 20 15 11 8 12 14 14 14 18 18 21 25 26 25 23 23 20 25 22 21 15 15 16 15 14 12 11 10 9 8 8 8 10 12 12 16 20 24 23 18 16 15 17 27 28 25
24 28 32 25 19 14 11 11 13 12 13 17 20 21 26 28 24 21 27 23 27 26 17 16 17 17 18 17 15 14 12 11 10 9 9 10 11 13 18 22 24 19 19 17 22 32 21 22 30
36 30 25 22 16 17 18 19 19 19 18 20 22 26 22 30 28 17 20 32 32 29 23 17 19 20 20 20 17 15 14 13 11 10 10 10 12 12 15 16 21 19 20 21 33 25 21 21 27
28 30 25 21 19 18 22 24 25 24 23 26 30 23 23 29 30 25 20 20 24 38 23 19 19 21 21 22 20 17 16 16 14 12 12 11 12 13 15 16 18 18 19 27 32 21 24 23 22
35 31 27 23 20 17 24 26 27 28 28 30 30 27 29 28 31 30 24 18 20 24 39 27 18 19 22 22 23 20 18 19 16 15 14 13 12 13 15 16 18 19 20 28 24 25 28 31 23
38 35 28 23 19 24 26 27 28 30 31 30 30 30 30 29 28 24 22 32 30 20 24 38 33 18 19 21 21 22 20 20 18 18 18 18 16 14 15 16 19 21 22 30 28 31 32 31 33
35 33 28 23 24 26 28 29 28 28 26 24 24 26 29 31 30 23 24 32 40 50 21 30 41 34 21 19 20 20 22 20 22 21 20 20 18 16 16 16 18 20 24 29 33 34 31 30 32
30 31 31 28 28 28 27 26 24 24 23 23 25 27 29 29 26 24 31 37 40 42 62 21 37 45 37 23 19 19 20 22 22 23 22 21 19 18 18 18 19 21 24 27 31 33 33 33 33
28 27 28 25 26 27 28 26 25 25 24 23 25 27 26 29 37 35 37 35 31 35 42 78 23 38 48 45 24 19 19 19 21 22 22 20 20 20 20 21 20 21 24 28 31 33 36 38 34
28 29 29 27 27 24 23 22 22 22 21 23 24 22 25 31 32 34 35 36 40 43 47 60 59 26 28 53 41 23 18 20 20 21 21 20 20 21 21 22 22 22 23 25 24 29 38 42 44
26 26 24 24 21 21 22 17 21 20 23 23 25 25 24 24 26 31 34 36 38 40 42 51 78 92 37 34 55 34 21 19 21 21 22 22 22 22 23 24 24 26 26 26 28 28 27 30 37
28 23 21 21 20 20 19 16 17 22 25 24 20 19 19 20 26 34 35 35 37 38 40 44 58 77 96 44 50 54 29 20 20 21 22 24 25 26 26 27 27 28 29 30 30 32 34 34 30
22 23 22 18 19 18 17 16 20 20 19 17 18 16 18 27 35 48 54 39 34 35 36 41 43 62 60 94 61 60 42 26 22 22 23 24 28 30 31 31 31 31 32 32 33 35 36 39 40
21 21 19 18 18 18 18 18 16 14 15 15 14 16 30 43 47 50 56 53 33 19 19 31 35 37 53 46 69 94 77 33 25 24 23 25 26 31 33 36 42 37 37 39 36 36 39 41 43
21 21 18 19 17 14 16 16 13 11 11 13 15 26 40 45 52 60 58 29 16 9 12 18 26 32 34 42 33 54 76 77 40 30 28 26 26 29 33 36 46 48 42 50 62 53 43 41 43
18 15 14 14 12 12 15 13 12 10 20 26 33 40 47 54 64 57 25 10 16 9 8 12 20 26 30 32 33 32 32 41 63 61 56 40 31 30 32 41 51 59 64 68 69 68 72 61 45
18 14 13 14 13 13 13 11 10 15 29 38 43 49 56 60 34 22 24 15 9 6 5 6 8 15 24 28 29 32 32 32 34 40 51 44 66 57 52 43 50 63 67 60 62 67 71 79 69
15 14 14 15 17 12 11 11 12 21 34 38 41 55 67 40 43 28 16 11 9 6 5 4 4 6 8 22 27 27 28 32 32 34 46 34 32 47 65 67 58 61 68 59 54 55 72 78 85
16 18 16 18 15 12 11 10 14 25 33 36 43 59 66 55 42 21 15 11 10 10 11 11 9 9 5 7 14 26 26 26 30 32 36 47 36 31 30 43 54 48 44 38 37 35 38 56 86
18 21 20 18 14 14 14 13 12 20 30 41 65 70 65 38 24 20 19 27 29 29 26 21 18 17 17 14 8 8 20 26 26 28 30 32 49 32 30 40 45 43 47 41 30 31 42 59 63
18 8 15 16 18 21 19 18 14 19 27 51 91 87 56 36 24 20 24 40 36 35 31 29 28 26 25 24 23 18 9 12 24 26 27 31 37 93 43 50 44 37 45 52 54 59 56 67 76
20 25 20 18 21 22 19 19 15 26 32 55 78 59 50 34 20 14 16 18 32 30 25 27 31 33 35 40 42 50 37 17 9 16 23 26 28 41 47 34 44 49 39 45 63 71 74 72 93
26 22 19 20 20 23 18 17 29 40 30 55 74 62 30 18 17 18 23 29 28 26 24 23 29 33 36 40 40 48 59 67 30 15 10 15 24 35 39 60 55 43 45 60 67 73 75 85 97
20 23 29 29 27 23 17 15 23 52 82 88 88 56 34 23 20 26 21 33 34 29 29 28 29 34 45 46 47 49 62 90 98 86 61 16 12 15 29 46 48 56 54 67 61 70 76 95 92
14 27 36 30 50 32 19 18 37 64 79 88 98 75 55 36 31 34 31 35 39 36 36 41 46 54 68 69 64 62 70 100 99 90 84 99 27 17 20 34 48 59 73 90 90 86 92 77 72
38 29 29 26 32 34 32 32 54 69 76 64 81 73 60 36 33 37 39 39 45 46 45 46 57 60 76 86 82 76 94 99 98 99 98 100 99 98 100 78 70 89 98 94 95 91 92 81 79
25 31 39 47 46 36 38 42 45 54 64 69 62 57 44 43 44 47 45 39 45 52 55 60 64 62 82 95 92 90 95 97 98 93 73 94 96 99 96 100 99 96 98 97 89 83 81 68 79

GFSSGP_700_rhum_153.txt.gz
RH
11 9 5 4 7 13 13 10 15 14 14 14 8 12 21 27 38 64 51 44 31 36 35 26 15 11 10 9 9 8 6 6 6 6 7 8 9 9 8 12 16 19 20 19 20 25 31 37 38
14 12 8 9 17 18 11 12 12 15 13 12 18 19 28 30 37 44 46 49 28 28 25 29 14 11 10 10 10 9 8 7 6 6 6 8 9 9 10 13 16 17 18 15 18 23 23 22 21
17 14 13 23 23 17 15 15 15 15 14 13 20 20 23 27 27 30 28 39 25 28 27 26 14 11 12 11 10 9 8 8 7 7 6 6 8 9 11 13 17 18 15 15 14 15 16 23 27
21 19 23 23 17 15 15 16 14 13 16 12 14 26 25 27 26 22 23 31 28 20 30 20 14 13 14 13 12 11 10 9 8 8 8 7 8 8 10 13 15 17 14 15 14 18 27 19 20
19 24 31 30 24 21 12 12 12 12 14 16 14 21 29 33 26 22 21 24 29 17 31 24 15 16 16 15 14 13 11 10 9 8 8 8 9 9 10 12 14 15 15 15 19 26 19 18 21
18 29 28 26 25 23 19 17 19 17 20 20 18 20 34 35 32 29 19 20 26 28 22 26 16 18 18 18 17 15 13 12 11 10 9 8 8 9 10 13 16 17 16 17 24 24 19 20 19
22 33 31 29 24 24 24 24 23 24 26 26 26 21 32 31 30 30 26 23 23 24 28 28 22 18 20 20 20 18 16 15 15 12 10 10 10 10 11 12 14 18 18 20 28 22 26 28 20
26 33 29 26 22 26 27 27 28 24 28 30 30 28 27 31 32 32 30 25 21 18 22 30 36 21 18 21 22 22 18 17 17 14 12 12 13 12 11 12 14 16 16 18 23 23 27 30 32
34 37 32 25 28 26 28 28 29 30 28 29 28 26 27 27 29 28 27 28 25 23 17 21 28 40 22 17 20 22 22 18 19 17 16 18 18 16 14 13 13 15 17 19 23 26 29 30 32
34 32 29 31 31 28 28 29 28 27 25 24 23 25 26 27 26 24 25 25 39 37 31 20 20 24 41 27 17 19 21 21 18 20 20 20 21 18 16 16 15 16 17 20 23 28 30 30 31
30 29 30 30 29 28 28 28 27 25 23 24 23 24 25 27 28 28 24 32 40 42 35 34 26 22 34 49 36 19 18 21 20 19 22 22 22 20 20 20 19 17 18 19 22 27 29 29 31
28 27 27 26 27 26 24 24 21 18 22 23 24 24 24 24 22 30 36 33 35 41 43 40 35 53 26 44 55 45 23 19 20 19 18 20 21 21 20 21 21 21 20 20 21 25 28 28 29
29 28 28 28 26 23 22 16 19 19 21 22 22 22 21 23 31 34 35 32 34 37 40 44 40 51 72 36 39 51 51 26 18 19 19 18 20 20 20 21 21 22 22 23 23 23 25 29 28
26 26 27 26 23 24 20 17 17 21 21 22 22 22 22 22 26 26 30 35 37 40 43 45 47 48 42 58 64 48 60 53 27 18 19 20 19 20 20 21 22 23 23 24 24 25 25 27 29
27 24 24 20 18 22 22 19 17 21 26 23 20 18 18 19 21 25 28 30 34 37 40 43 47 52 58 41 49 43 54 63 53 25 19 20 20 21 21 22 24 24 25 26 27 27 29 29 30
26 22 20 20 20 21 20 20 21 20 16 17 16 17 19 19 22 28 32 26 22 23 32 38 39 44 55 60 47 37 48 61 77 54 24 23 22 23 23 24 26 28 28 30 29 30 31 32 34
24 22 21 20 19 18 18 17 16 15 15 14 14 18 20 22 23 27 32 28 23 26 22 20 36 40 41 56 60 51 45 55 71 91 60 40 38 28 24 26 29 30 32 37 39 39 38 35 35
22 22 20 19 18 17 16 15 15 14 12 11 14 21 21 25 36 28 24 26 26 19 14 11 7 13 28 34 42 50 55 68 59 66 82 60 50 45 44 28 28 32 37 36 43 49 51 57 56
23 19 17 17 15 12 12 13 13 11 18 16 15 19 28 36 27 24 23 19 16 16 11 8 7 6 6 10 21 32 36 93 91 42 52 61 72 82 58 45 30 31 32 36 42 55 52 54 64
22 21 21 20 16 14 13 14 12 10 18 21 20 22 32 36 21 20 20 21 17 12 7 5 5 4 4 5 6 10 22 31 58 85 45 39 76 95 75 68 50 57 34 38 43 58 64 70 70
18 18 17 16 15 14 16 12 9 12 20 28 30 31 34 31 25 21 26 25 22 14 9 6 9 10 11 7 5 5 6 14 26 39 43 40 49 59 68 64 77 68 64 51 44 67 78 75 76
16 15 17 16 15 17 12 15 12 22 24 34 37 38 37 37 41 36 40 25 16 15 14 12 12 14 19 19 13 8 5 4 10 24 31 47 44 36 54 78 82 63 70 77 89 87 96 86 97
17 17 17 17 14 13 9 13 13 27 30 35 38 42 47 56 56 43 20 14 12 11 10 8 10 11 13 18 20 19 13 10 7 5 13 28 38 49 39 58 68 77 63 62 71 73 87 80 74
18 17 18 8 9 26 15 17 26 34 24 38 49 57 61 60 37 22 21 19 15 14 9 8 9 14 17 20 19 22 27 29 18 10 7 6 22 31 41 45 54 59 53 58 59 64 68 75 80
19 14 24 31 30 36 19 22 62 51 52 45 51 65 57 39 33 35 29 18 11 16 14 11 15 18 19 20 23 24 27 32 37 33 20 12 7 14 27 33 48 37 63 85 63 66 74 74 80
21 24 26 33 40 36 21 26 84 49 47 55 58 67 56 50 34 25 22 15 13 19 22 26 24 22 23 27 31 34 29 39 37 40 37 32 31 11 10 23 47 57 47 66 75 70 68 71 71
21 24 22 26 24 28 19 48 72 62 63 67 60 49 47 35 28 29 22 16 20 25 29 27 25 29 31 38 43 53 44 51 50 48 47 42 76 55 22 11 16 32 45 45 64 81 85 78 74
17 26 33 31 58 49 30 43 60 74 85 78 63 59 45 35 40 31 28 23 26 28 32 31 34 35 41 48 52 64 66 66 65 61 69 99 95 95 100 98 26 14 25 44 52 54 57 62 72
26 18 24 33 34 61 57 59 68 70 61 56 62 59 51 52 46 42 32 31 32 35 34 34 40 42 54 53 54 69 80 78 75 82 89 95 99 98 99 99 98 30 22 42 41 41 49 71 80
26 31 34 28 37 46 51 52 70 62 68 70 64 57 49 42 45 37 36 37 39 43 50 49 52 52 47 40 43 82 88 93 86 92 100 94 98 99 92 99 100 79 26 54 85 48 98 100 98

GFSSGP_700_rhum_156.txt.gz
RH
10 9 6 4 6 8 13 15 14 16 14 11 9 7 12 23 31 38 48 52 48 47 44 41 27 15 12 10 9 8 8 7 6 5 4 5 6 7 10 14 17 19 20 19 17 22 24 25 28
14 11 8 9 13 15 17 18 16 15 13 12 8 13 19 26 36 39 35 43 43 35 39 35 30 15 11 10 10 9 8 7 6 6 5 5 5 7 9 14 17 18 18 14 15 18 16 15 18
16 15 12 14 20 20 18 16 15 14 13 13 14 16 20 25 25 24 24 25 31 29 32 32 28 14 11 12 11 10 9 8 7 6 6 5 5 7 8 11 13 15 14 14 13 14 19 25 22
20 17 16 21 28 25 24 15 14 15 13 17 16 19 27 26 26 24 23 23 31 30 29 31 26 13 12 13 12 11 11 10 9 8 7 6 6 6 8 10 12 14 13 14 14 20 23 18 20
18 17 23 28 27 21 15 14 13 18 18 16 17 26 24 29 24 26 29 21 21 29 30 28 22 13 14 15 14 13 12 11 10 9 8 7 7 7 7 8 11 15 15 15 19 24 19 19 21
20 17 21 24 27 24 18 19 17 20 21 20 18 27 29 24 32 32 30 28 22 24 24 35 31 14 16 17 16 16 14 13 12 11 10 9 8 8 8 9 11 12 14 15 22 22 20 22 19
22 19 24 23 28 27 28 27 25 28 27 24 26 29 32 34 32 32 31 29 26 22 22 29 38 21 15 19 19 19 18 16 14 14 12 10 10 10 10 10 11 13 15 16 21 20 23 26 24
22 24 25 28 28 28 29 28 27 28 28 31 29 29 30 30 30 30 30 30 31 30 24 20 27 39 29 16 19 20 21 19 17 17 14 12 12 13 13 12 12 13 15 16 22 22 27 31 31
24 23 22 30 31 30 29 29 27 26 28 29 28 27 27 27 26 26 28 29 28 26 24 23 20 28 37 36 17 17 20 20 19 18 17 16 16 18 17 14 13 14 15 16 20 23 29 32 31
30 25 26 30 34 32 30 29 29 29 29 27 25 24 26 29 28 26 26 27 29 28 27 23 20 20 35 42 46 28 17 18 20 19 18 18 18 20 19 18 16 16 15 16 20 24 29 30 31
31 25 28 31 32 29 28 28 26 28 27 24 23 24 24 26 27 28 28 28 27 29 33 33 31 42 56 37 52 61 44 22 17 19 18 18 18 19 21 20 19 19 17 17 18 23 29 30 31
27 27 26 26 27 27 27 27 24 20 19 20 23 23 24 24 24 24 24 21 25 31 37 35 39 37 44 56 50 62 58 60 28 18 18 19 18 18 19 21 20 20 21 20 20 21 24 26 28
30 30 29 29 29 27 24 24 19 19 20 22 22 22 21 20 18 17 18 23 29 35 39 41 42 40 38 57 66 52 50 66 67 30 19 18 19 18 18 19 20 21 21 22 22 22 23 24 26
28 28 28 28 27 27 22 19 19 18 21 23 21 22 21 18 18 18 20 27 31 31 38 43 45 46 45 40 55 70 62 58 63 72 32 19 18 19 19 19 20 20 21 22 23 23 24 25 25
28 26 26 25 24 26 21 20 18 20 25 26 24 22 20 19 19 20 20 20 19 22 34 39 42 47 49 48 47 45 67 80 60 65 73 33 19 19 19 20 20 20 21 23 23 24 25 26 28
26 26 24 21 19 20 22 20 21 23 23 19 18 17 16 16 16 17 16 16 17 20 20 26 32 38 41 50 52 50 49 53 60 67 71 75 46 22 22 22 22 22 22 26 26 25 33 29 29
24 23 22 22 19 20 21 20 21 15 22 20 16 15 14 14 16 17 17 17 17 21 23 15 12 13 18 31 44 53 55 54 52 42 44 73 72 71 56 42 35 26 25 26 27 29 36 37 33
23 23 22 21 20 20 18 17 16 17 14 13 12 11 13 14 20 22 20 20 28 25 14 13 10 8 7 6 6 20 40 50 51 49 47 49 66 74 57 70 58 49 44 37 39 41 49 43 39
27 22 20 17 14 13 14 15 12 12 12 13 15 14 14 16 19 18 19 25 27 19 21 18 15 12 10 8 4 4 5 8 31 38 43 52 72 86 80 73 63 69 57 58 50 57 65 56 51
24 21 22 22 18 16 14 13 13 13 12 15 19 21 21 25 25 21 19 22 23 20 21 20 17 13 11 8 6 5 5 6 5 12 30 37 41 66 79 71 69 75 63 70 69 55 61 66 61
22 22 22 20 22 19 16 15 15 15 12 16 23 27 29 28 31 32 25 22 25 25 27 22 17 16 16 13 8 5 4 5 8 10 7 12 34 37 65 47 53 85 78 75 62 77 77 65 65
20 18 17 16 17 17 16 15 13 12 14 22 34 38 38 36 40 39 34 29 31 34 25 21 22 20 16 8 5 4 4 3 4 4 5 10 10 52 36 36 72 84 84 82 74 72 87 97 86
19 18 18 17 17 16 12 14 14 13 17 33 46 48 48 45 42 39 41 42 37 27 23 14 8 6 6 6 7 6 6 4 4 10 9 7 12 12 37 60 44 68 87 79 76 78 89 99 100
20 19 18 18 18 18 9 8 26 40 24 33 48 62 59 55 52 50 41 32 25 20 14 11 9 8 7 10 11 14 13 12 11 11 14 18 17 17 16 15 50 42 43 76 71 62 95 94 99
21 20 18 25 28 28 22 22 24 31 32 47 62 72 67 61 48 38 31 24 25 20 13 12 11 12 11 13 15 16 18 19 18 22 24 16 17 22 26 22 14 32 47 52 54 56 81 88 78
22 20 18 37 45 36 20 52 45 46 53 74 77 72 60 50 42 33 30 30 22 17 15 13 16 16 16 15 17 20 24 29 31 33 36 38 32 30 31 31 25 17 15 42 60 48 48 56 89
22 23 23 26 28 32 25 63 63 76 73 69 70 63 56 52 44 36 36 28 21 17 19 19 22 20 23 26 26 28 39 43 46 52 55 60 58 54 47 46 36 28 24 12 69 98 72 47 62
20 23 26 24 41 48 35 56 60 62 62 65 60 63 59 53 40 40 34 26 20 22 24 27 33 38 42 42 42 42 37 51 56 64 66 66 68 70 82 99 97 77 51 87 16 50 77 60 56
19 22 24 28 29 67 58 60 59 56 55 70 75 66 60 44 44 41 30 22 25 32 37 44 48 47 44 41 37 35 43 50 65 75 76 78 79 85 92 100 100 100 95 96 72 28 43 61 53
31 30 27 24 26 33 43 41 66 75 73 67 63 64 49 50 49 37 29 32 38 43 46 41 38 36 36 36 37 42 43 52 80 88 92 90 89 98 99 94 98 99 98 96 86 79 27 40 37